Home   Weather   Doncaster   Past weeks
Flag for United Kingdom

Past Weather in Doncaster, England, United Kingdom — Yesterday and Last 2 Weeks

Now
52 °F

Clear.


Feels Like: 48 °F
Forecast: 70 / 54 °F
Wind: 12 mph from Southwest

Location: Scampton

Current Time: Aug 20, 2019 at 2:05:30 am

Latest Report: Aug 20, 2019 at 12:50 am


Visibility: N/A

Pressure: 30.01 "Hg

Humidity: 88%

Dew Point: 48 °F

Location of DoncasterLocation

Past Weather in Doncaster — Graph

°F

Doncaster Temperature Yesterday

Maximum temperature yesterday: 68 °F (at 12:50 pm)
Minimum temperature yesterday: 52 °F (at 11:50 pm)
Average temperature yesterday: 59 °F

High & Low Weather Summary for the Past Weeks

 TemperatureHumidityPressure
High77 °F (Aug 9, 3:50 pm)100% (Aug 9, 3:50 am)30.01 "Hg (Aug 9, 3:50 am)
Low48 °F (Aug 12, 4:50 am)40% (Aug 17, 4:50 pm)29.30 "Hg (Aug 10, 3:50 am)
Average61 °F77%29.71 "Hg
* Reported Aug 5 12:50 am — Aug 20 12:50 am, Doncaster. Weather by CustomWeather, © 2019

Note: Actual official high and low records may vary slightly from our data, if they occured in-between our weather recording intervals... More about our weather records

Advertising

Doncaster Weather History for the Previous 24 Hours

Scroll right to see more
 ConditionsComfort  
Time TempWeatherWind HumidityBarometerVisibility
12:50 am
Tue, Aug 20
52 °FClear.12 mph88%30.01 "HgN/A
11:50 pm
Mon, Aug 19
52 °FClear.10 mph88%29.98 "HgN/A
10:50 pm54 °FClear.8 mph82%29.98 "HgN/A
9:50 pm54 °FPassing clouds.7 mph77%29.98 "HgN/A
8:50 pm57 °FPassing clouds.5 mph72%29.95 "HgN/A
7:50 pm61 °FScattered clouds.8 mph68%29.92 "HgN/A
6:50 pm64 °FPartly sunny.12 mph60%29.92 "HgN/A
5:50 pm64 °FScattered clouds.12 mph60%29.89 "HgN/A
4:50 pm63 °FScattered clouds.10 mph77%29.89 "HgN/A
3:50 pm61 °FBroken clouds.15 mph72%29.89 "HgN/A
2:50 pm64 °FPartly sunny.18 mph60%29.86 "HgN/A
1:50 pm66 °FPartly sunny.14 mph52%29.86 "HgN/A
12:50 pm68 °FScattered clouds.13 mph49%29.86 "HgN/A
11:50 am66 °FPassing clouds.15 mph56%29.83 "HgN/A
10:50 am64 °FPartly sunny.13 mph60%29.83 "HgN/A
9:50 am61 °FPartly sunny.14 mph72%29.80 "HgN/A
8:50 am59 °FPartly sunny.15 mph82%29.80 "HgN/A
7:50 am57 °FPartly sunny.13 mph88%29.77 "HgN/A
6:50 am54 °FPassing clouds.12 mph94%29.77 "HgN/A
5:50 am54 °FSunny.12 mph88%29.74 "HgN/A
4:50 am54 °FClear.10 mph88%29.71 "HgN/A
3:50 am54 °FClear.10 mph88%29.71 "HgN/A
2:50 am54 °FClear.12 mph88%29.71 "HgN/A
Weather by CustomWeather, © 2019

See weather overview